Location: Izdebnik
(49.8699°N, 19.7619°E)
Time: 10:21:10
(UTC+01:00)

ISS - Pass Details

Date: 26 January 2019
Orbit: 403 x 411 km, 51.6° (Epoch: 21 February)

Event Time Altitude Azimuth Distance (km) Brightness Sun altitude
Rises 19:12:06 0° 260° (W) 2,335 1.3 -26.7°
Reaches altitude 10° 19:14:11 10° 262° (W) 1,477 0.0 -27.1°
Enters shadow 19:15:30 22° 265° (W) 953 -1.3 -27.3°
